weather.gov     
National Weather Service

Regional Weather Roundup
NWS Homepage
This page is being discontinued on March 12, 2014.
The same data is available at this site. Please update your bookmarks.
Thank you, and we apologize for the inconvenience.
Please send an email to SR-SRH.Webmaster@noaa.gov with any concerns.


Current Version
Previous Version:    01  02  03  04  05  06  07  08  09  10  11  12  13  14  15  16  17  18  19  20  21  22  23  24  25  26  27  28  29  30  
   31  32  33  34  35  36  37  38  39  40  41  42  43  44  45  46  47  48  49  50  51  52  53  54  55  56  57  58  59  60  
[Printable]
502
ASUS46 KLOX 250212
RWRCA

SOUTHERN CALIFORNIA WEATHER ROUNDUP
NATIONAL WEATHER SERVICE OXNARD CALIFORNIA
700 PM PDT THU APR 24 2014

NOTE: "FAIR" INDICATES FEW OR NO CLOUDS BELOW 12,000 FEET WITH NO
SIGNIFICANT WEATHER AND/OR OBSTRUCTIONS TO VISIBILITY.

  -  STATIONS PRECEEDED BY AN ASTERISK (*) ARE NOT NWS OR FAA
     STATIONS AND ARE NOT SUBJECT TO NWS AND FAA QUALITY CONTROL.

CAZ041-042-087-250300-
LA AND ORANGE COUNTY COASTAL AREAS


CITY           SKY/WX    TMP DP  RH WIND       PRES   REMARKS
L.A. DOWNTOWN  CLEAR     67  45  45 W3        29.90F
L.A. AIRPORT   PTCLDY    65  51  60 SW13      29.91S
LONG BEACH     CLEAR     69  39  33 W8        29.91S

CITY           SKY/WX    TMP DP  RH WIND       PRES   REMARKS
AVALON           N/A     66 N/A N/A MISG        N/A
FULLERTON      CLEAR     71  41  33 VRB3      29.90S
*GETTY CENTER    N/A     61  50  67 S3          N/A
HAWTHORNE      CLEAR     65  49  56 W9        29.91F
*REDONDO BEACH   N/A     64  53  68 SW3       29.90S
SANTA ANA      PTCLDY    67  51  56 SW7       29.92S
STA MONICA APT CLEAR     67  51  56 SW8       29.91S
TORRANCE       PTCLDY    70  43  37 W7        29.92S
*UCLA            N/A     63  48  59 S2        29.88S

$$

CAZ547-548-048-250300-
LA COUNTY VALLEYS AND INLAND EMPIRE


CITY           SKY/WX    TMP DP  RH WIND       PRES   REMARKS
BURBANK        CLEAR     68  44  42 S7        29.89S
VAN NUYS       CLEAR     73  31  21 W7        29.89R

CITY           SKY/WX    TMP DP  RH WIND       PRES   REMARKS
CORONA AIRPORT CLEAR     69  46  43 W16G25      N/A
*CHATSWORTH      N/A     73  39  30 NW6       29.86S
CHINO          CLEAR     69  47  45 W15       29.91R
MARCH AFB      CLEAR     72  45  37 NW13      29.90R
*NORTHRIDGE      N/A     72  30  21 W5          N/A
ONTARIO        CLEAR     71  45  39 SW16      29.90R
*PASADENA        N/A     66  45  45 E5          N/A
POMONA         CLEAR     68  46  45 W12G17    29.94R
RIVERSIDE      CLEAR     71  45  39 W14G26    29.88S
SAN BERNARDINO CLEAR     73  41  31 SW20      29.89R
*SAN GABRIEL     N/A     69  38  33 CALM      29.88S
*WHITEMAN AP   CLEAR     72  39  30 E7        29.93S
*WOODLAND HILL   N/A     73  30  20 W3G10       N/A

$$

CAZ054-055-250300-
LA AND SAN BERNARDINO COUNTY MOUNTAINS


CITY           SKY/WX    TMP DP  RH WIND       PRES   REMARKS
*BIG BEAR AIRP CLEAR     54  32  43 SW3       30.08S
MT WILSON NWS    N/A     59  23  25 SW5         N/A
SANDBERG       CLEAR     57  36  45 N14G25    30.02S

$$

CAZ028-029-059-060-099-250300-
ANTELOPE VALLEY AND SURROUNDING AREAS


CITY           SKY/WX    TMP DP  RH WIND       PRES   REMARKS
LANCASTER      CLEAR     67  37  33 W28G33    29.91R
PALMDALE       CLEAR     73  34  23 SW17      29.90R

CITY           SKY/WX    TMP DP  RH WIND       PRES   REMARKS
29 PALMS       CLEAR     81  20  10 SW12      29.89F
BARSTOW/DAGGET CLEAR     82  20  10 W10       29.81F
BISHOP         MOCLDY    75  22  13 SW7       29.82F
CHINA LAKE     CLEAR     79  30  16 S21G28    29.79F
EDWARDS AFB    PTCLDY    74  32  20 W21G26    29.86R
MOJAVE         FAIR      66  36  32 W29G36    29.89S
NEEDLES        CLEAR     87   7   5 SW12      29.79S
VICTORVILLE    CLEAR     73  34  23 S20       29.89R

$$

CAZ039-040-250300-
VENTURA AND SANTA BARBARA COUNTY COAST


CITY           SKY/WX    TMP DP  RH WIND       PRES   REMARKS
CAMARILLO      CLEAR     66  50  56 SW5       29.89F
NWS OXNARD       N/A     64  51  62 CALM      29.89S
OXNARD AIRPORT CLEAR     60  52  74 W7        29.90F
*POINT MUGU    PTCLDY    64  53  67 W3        29.89F
SBA APT/GOLETA CLEAR     62  53  72 SE3       29.88F
*SANTA BARBARA   N/A     65  50  58 CALM      29.96F
*VENTURA         N/A     67  49  52 SW3       29.93S

$$

CAZ044-045-250300-
VENTURA COUNTY VALLEYS


CITY           SKY/WX    TMP DP  RH WIND       PRES   REMARKS
*SIMI VALLEY     N/A     68  39  33 W2        29.86S
*OJAI            N/A     71  45  38 CALM      29.83F
*FILLMORE        N/A     71  45  38 CALM      29.81R

$$

CAZ053-250300-
VENTURA COUNTY MOUNTAINS


CITY           SKY/WX    TMP DP  RH WIND       PRES   REMARKS
*LOCKWOOD VLY    N/A     59  27  29 MISG        N/A
*ROSE VALLEY     N/A     64  39  39 MISG        N/A

$$

CAZ034-035-036-250300-
CENTRAL COAST AND SANTA YNEZ VALLEY


CITY           SKY/WX    TMP DP  RH WIND       PRES   REMARKS
SAN LUIS OBISP PTCLDY    58  50  75 NW18G26   29.96F
SANTA MARIA    CLEAR     59  50  72 W18       29.96S

CITY           SKY/WX    TMP DP  RH WIND       PRES   REMARKS
*CAL POLY SLO    N/A     61  52  72 NW6G14      N/A
*CAMBRIA         N/A     54  51  89 NE14      29.86S
*LOMPOC        CLEAR     59  46  63 W16       29.99S
*PISMO BEACH     N/A     65  47  52 E5        29.95S
*SANTA YNEZ    FAIR      61  46  59 W13       29.95S

$$

CAZ037-038-051-250300-
SAN LUIS OBISPO COUNTY INTERIOR AND CUYAMA VALLEY


CITY           SKY/WX    TMP DP  RH WIND       PRES   REMARKS
*CUYAMA          N/A     69  31  24 CALM      29.83F
PASO ROBLES    CLEAR     70  38  31 W9        29.94R

$$

CAZ032-033-061-250300-
SOUTHERN DESERTS


CITY           SKY/WX    TMP DP  RH WIND       PRES   REMARKS
BLYTHE         CLEAR     87  27  11 S10       29.76F
IMPERIAL       CLEAR     87  37  17 SE9       29.76S
PALM SPRINGS   CLEAR     87  27  11 NE14      29.79F
THERMAL        CLEAR     84  31  14 S6        29.74F

$$

ELSEWHERE ACROSS THE WESTERN UNITED STATES AND MEXICO


CITY           SKY/WX    TMP DP  RH WIND       PRES   REMARKS
DENVER, CO     MOCLDY    52  33  48 E9        29.89R
GRAND CANYON,  CLEAR     62   2   9 W8G18     30.04R
HONOLULU, HI   MOSUNNY   81  63  54 E18G28    30.05F
KAHULUI, MAUI  LGT RAIN  79  70  73 NE18G29   30.06F
LAKE TAHOE, CA MOCLDY    50  27  40 S17G28    29.99F
LAS VEGAS, NV  CLEAR     82  11   7 SW12      29.75F
MAMMOTH LAKES, MOCLDY    55  23  28 W10G26    30.02S
MEXICO CITY, M CLOUDY    72  39  30 NW9       30.27R
PHOENIX, AZ    PTCLDY    86  13   6 CALM      29.81S
PORTLAND, OR   PTSUNNY   54  37  52 W10       29.91F
RENO, NV       CLOUDY    60  24  25 W13       29.92R
SALT LAKE CITY CLOUDY    60  27  28 N8        29.89F
SAN DIEGO, CA  PTCLDY    65  55  70 SW7       29.95R
SAN FRANCISCO, CLOUDY    61  54  77 W7G17     30.01S
SAN JOSE, CA   CLOUDY    61  51  70 NW14      30.02S
SEATTLE, WA    LGT RAIN  50  44  80 SW13      29.89R
TIJUANA, MEX   CLEAR     66  43  42 SW6       29.96R

$$

STATION/POSITION TIME  TEMP    WIND        PRES    VSBY  WAVE
                       AIR SEA DIR/SP/G                  HT/PER
                 (UTC) (F)     (DEG/KT/KT) (MB)    (MI)  (FT/S)
POINT ARGUELLO B NOT AVBL
WEST SANTA BARBA 0200   55 55  330/ 25/ 31 1012.5F        10/11
POINT CONCEPTION NOT AVBL
EAST SANTA BARBA NOT AVBL
SANTA MONICA BAY 0200   61 61  280/ 19/ 23 1011.8F         4/ 8




U.S. Dept. of Commerce
NOAA National Weather Service
1325 East West Highway
Silver Spring, MD 20910
E-mail: w-nws.webmaster@noaa.gov
Page last modified: May 16, 2007
NATIONAL WEATHER SERVICE: for Safety, for Work, for Fun - FOR LIFE